SCP
0 0 0 0 0 0 1 1 1 1 1 1 1 1 1 2 2 1 1 0 0 0 0 0 0 0 0 0 0 0 0 0 0 0 0 0 0 0 0 0 0 0 0 0
0 0 0 0 0 1 1 1 1 1 1 1 1 1 1 2 2 1 1 1 0 0 0 0 0 0 0 0 0 0 0 0 0 0 0 0 0 0 0 0 0 0 0 0
0 0 0 0 0 1 1 1 1 1 1 1 1 1 1 1 2 2 1 1 0 0 0 0 0 0 0 0 0 0 0 0 0 0 0 0 0 0 0 0 0 0 0 0
0 0 0 0 0 1 1 1 1 1 1 1 1 1 1 2 2 2 1 0 0 0 0 0 0 0 0 0 0 0 0 0 0 0 0 0 0 0 0 0 0 0 0 0
0 0 0 0 0 0 0 1 1 1 1 1 1 1 2 2 2 1 1 0 0 0 0 0 0 0 0 0 0 0 0 0 0 0 0 0 0 0 0 0 0 0 0 0
0 0 0 0 0 0 0 0 0 1 1 1 1 1 1 1 1 1 0 0 0 0 0 0 0 0 0 0 0 0 0 0 0 0 0 0 0 0 0 0 0 0 0 0
0 0 0 0 0 0 0 0 0 1 1 1 1 1 1 1 1 0 0 0 0 0 0 0 0 0 0 0 0 0 0 0 0 0 0 0 0 0 0 0 0 0 0 0
0 0 0 0 0 0 0 0 0 1 1 0 1 0 0 0 0 0 0 0 0 0 0 0 0 0 0 0 0 0 0 0 0 0 0 0 0 0 0 0 0 0 0 0
0 0 0 0 0 0 0 0 0 0 0 0 0 0 0 0 0 0 0 0 0 0 0 0 0 0 0 0 0 0 0 0 0 0 0 0 0 0 0 0 0 0 0 0
0 0 0 0 0 0 0 0 0 0 0 0 0 0 0 0 0 0 0 0 0 0 0 0 0 0 0 0 0 0 0 0 0 0 0 0 0 0 0 0 0 0 0 0
0 0 0 0 0 0 0 0 0 0 0 0 0 0 0 0 0 0 0 0 0 0 0 0 0 0 0 0 0 0 0 0 0 0 0 0 0 0 0 0 0 0 0 0
0 0 0 0 0 0 0 0 0 0 0 0 0 0 0 0 0 0 0 0 0 0 0 0 0 0 0 0 0 0 0 0 0 0 0 0 0 0 0 0 -0 0 0 0
0 0 0 0 0 0 0 0 0 0 0 0 0 0 0 0 0 0 0 0 0 0 0 0 0 0 0 0 0 0 0 0 0 0 0 0 0 0 0 0 0 0 0 0
0 0 0 0 0 0 0 0 0 0 0 0 0 0 0 0 0 0 0 0 0 0 0 0 0 0 0 0 0 0 0 0 0 0 0 0 0 0 0 0 0 0 0 0
0 0 0 0 0 0 0 0 0 0 0 0 0 0 0 0 0 0 0 0 0 0 0 0 0 0 0 0 0 0 0 0 0 0 0 0 0 0 0 0 0 0 0 0
0 0 0 0 0 0 0 0 0 0 0 0 0 0 0 0 0 0 0 0 0 0 0 0 0 0 0 0 0 0 0 0 0 0 0 0 0 0 0 0 0 0 0 0
0 0 0 0 0 0 0 0 0 0 0 0 0 0 0 0 0 0 0 0 0 0 0 0 0 0 0 0 0 0 0 0 0 0 0 0 0 0 0 0 0 0 0 0
0 0 0 0 0 0 0 0 0 0 0 0 0 0 0 0 0 0 0 0 0 0 0 0 0 0 0 0 0 0 0 0 0 0 0 0 0 0 0 0 0 0 0 0
0 0 0 0 0 0 0 0 0 0 0 0 0 0 0 0 0 0 0 0 0 0 0 0 0 0 0 0 0 0 0 0 0 0 0 0 0 0 0 0 0 0 0 0
0 0 0 0 0 0 0 0 0 0 0 0 0 0 0 0 0 0 0 0 0 0 0 0 0 0 0 0 0 0 0 0 0 0 0 0 0 0 0 0 0 0 0 0
0 0 0 0 0 0 0 0 0 0 0 0 0 0 0 0 0 0 0 0 0 0 0 0 0 0 0 0 0 0 0 0 0 0 0 0 0 0 0 0 0 0 0 0
0 0 0 0 0 0 0 0 0 0 0 0 0 0 0 0 0 0 0 0 0 0 0 0 0 0 0 0 0 0 0 0 0 0 0 0 0 0 0 0 0 0 0 0
1 1 0 0 0 0 0 0 0 0 0 0 0 0 0 0 0 0 0 0 0 0 0 0 0 0 0 0 0 0 0 0 0 0 0 0 0 0 0 0 0 0 0 0
1 1 0 0 0 0 0 0 0 0 0 0 0 0 0 0 0 0 0 0 0 0 0 0 0 0 0 0 0 0 0 0 0 0 0 0 0 0 0 0 0 0 0 0
1 0 0 0 0 0 0 0 0 0 0 0 0 0 0 0 0 0 0 0 0 0 0 0 0 0 0 0 0 0 0 0 0 0 0 0 0 0 0 0 0 0 0 0
0 0 0 0 0 0 0 0 0 0 0 0 0 0 0 0 0 0 0 0 0 0 0 0 0 0 0 0 0 0 0 0 0 0 0 0 0 0 0 0 0 0 0 0
0 0 0 0 0 0 0 0 0 0 0 0 0 0 0 0 0 0 0 0 0 0 0 0 0 0 0 0 0 0 0 0 0 0 0 0 0 0 0 0 0 0 0 0
Wind_Speed
1 1 2 3 4 3 3 4 6 5 5 6 7 8 8 9 10 10 10 10 10 9 7 6 6 5 4 4 3 3 3 3 2 2 2 3 3 3 3 4 4 4 4 5
3 3 3 4 5 4 3 3 5 6 2 3 6 7 7 9 11 10 10 10 10 9 8 7 6 5 5 3 3 3 3 2 2 2 3 3 3 3 4 4 4 4 5 5
1 2 4 4 4 3 3 3 5 4 4 7 7 8 9 9 10 10 11 10 10 9 8 7 6 6 5 4 3 3 3 2 2 3 3 2 2 3 4 3 4 4 4 5
1 4 2 3 2 4 7 4 4 6 7 7 7 6 5 6 9 9 9 9 9 8 7 6 5 5 4 4 4 3 3 3 3 3 3 3 3 3 3 3 3 3 3 4
3 2 1 2 2 1 4 3 2 7 7 5 7 6 3 3 6 8 9 8 7 7 7 6 6 5 5 4 4 4 3 3 3 3 3 3 2 2 2 2 3 3 2 3
3 3 1 3 4 0 6 2 1 6 8 8 6 4 3 4 7 8 8 8 8 7 7 6 5 5 6 4 4 4 3 3 2 2 3 2 2 1 2 2 2 2 3 3
2 1 3 5 4 2 3 5 4 6 8 7 4 5 7 9 8 8 9 9 8 8 7 6 5 6 6 5 4 3 3 3 2 2 2 2 1 1 1 2 2 2 3 3
3 1 4 5 2 2 4 2 5 5 5 5 6 8 10 10 10 10 9 8 8 7 6 4 5 6 5 4 3 3 3 3 2 1 1 2 2 2 2 2 2 2 3 3
4 4 4 1 2 2 4 5 4 4 6 9 9 9 10 9 9 9 8 7 6 7 6 4 5 6 6 4 3 4 3 2 2 2 2 2 2 2 2 2 2 1 1 1
3 1 1 2 3 3 5 6 6 7 8 9 9 10 10 9 8 8 7 6 6 7 6 5 4 5 5 4 4 4 3 2 2 2 2 2 2 1 1 1 1 1 1 1
2 2 2 2 2 4 6 8 9 8 7 9 11 10 9 8 8 7 6 5 6 6 6 6 5 5 4 4 5 4 3 2 2 1 1 2 2 1 1 1 2 2 2 2
5 6 5 3 3 6 8 8 10 9 8 7 9 10 8 8 7 7 7 6 6 6 6 6 5 5 4 4 5 4 3 2 1 1 1 1 1 1 3 1 1 1 3 3
5 4 5 5 5 7 8 8 9 9 10 9 8 8 8 7 6 6 6 6 7 7 6 6 5 5 4 4 4 4 3 3 2 2 2 2 2 1 1 3 4 3 3 3
6 7 6 5 5 6 8 9 9 9 9 9 8 8 8 6 6 7 7 6 7 7 6 5 5 4 4 4 4 4 3 3 3 3 3 3 3 3 3 2 2 3 4 5
4 5 7 7 7 8 9 10 10 9 8 7 7 8 8 8 7 7 7 7 7 6 6 5 5 5 4 4 4 3 3 2 2 2 2 3 3 3 3 3 3 3 3 3
5 7 8 9 9 9 9 10 9 9 9 8 7 8 8 8 7 6 6 7 7 7 6 6 5 5 5 4 4 3 2 4 3 2 2 2 2 3 3 3 3 3 4 4
7 7 7 8 8 8 8 8 9 9 9 9 9 8 8 7 6 6 6 6 7 7 6 6 6 5 5 5 5 3 2 3 3 2 2 2 3 3 4 4 4 4 5 5
7 8 9 9 9 8 8 9 9 10 10 9 9 8 8 8 8 7 6 6 5 5 5 6 6 5 4 5 4 3 3 3 3 3 3 3 3 3 3 4 5 5 5 4
5 7 7 8 8 8 8 8 9 9 9 10 10 9 8 8 8 7 6 6 6 6 5 6 8 6 5 5 5 3 3 4 3 4 4 4 4 3 3 4 4 5 5 4
5 6 7 7 7 7 8 7 8 8 9 9 9 8 8 8 8 7 7 6 6 6 6 6 6 5 5 5 5 3 4 4 4 4 4 4 4 4 4 5 5 5 4 5
5 6 6 6 6 7 8 8 8 8 8 10 10 10 9 8 8 7 7 6 6 6 6 8 5 5 5 5 5 3 4 4 4 4 4 4 5 5 5 5 5 5 5 4
4 5 5 5 5 5 6 7 7 8 8 9 9 9 8 8 8 7 7 7 6 8 6 5 5 6 7 6 4 4 4 5 5 4 4 5 5 5 5 5 5 5 5 5
3 4 4 5 5 5 5 6 7 8 9 9 9 9 9 8 7 7 6 5 5 9 7 5 8 10 10 6 4 5 5 5 5 5 5 5 5 5 5 6 5 5 5 5
3 3 3 3 4 5 4 5 5 6 7 8 8 9 8 6 5 6 5 8 11 10 7 8 11 12 10 5 5 5 5 5 5 5 5 5 5 5 5 5 5 5 5 6
3 3 3 4 4 3 4 4 4 4 5 5 6 8 7 7 7 6 6 8 11 11 7 9 13 12 8 6 6 6 6 6 6 6 6 6 6 6 6 5 6 6 6 6
3 2 3 3 3 3 3 3 3 3 4 4 4 5 5 5 6 6 5 8 10 11 8 7 7 9 7 7 7 7 7 7 7 7 7 6 7 6 6 6 8 6 6 6
2 2 1 1 1 2 3 3 3 3 4 4 4 5 5 6 6 6 7 7 7 8 7 7 7 7 7 8 8 7 7 7 7 7 6 6 6 6 7 8 6 6 5 5
Wind_Direction
110 7 50 29 7 37 90 156 164 183 171 183 170 159 156 148 142 139 140 143 144 142 138 135 134 130 123 118 110 109 107 98 91 67 60 48 39 37 38 41 44 41 41 33
36 24 43 40 26 45 65 83 118 120 121 150 135 126 138 145 146 149 150 149 146 143 141 141 141 133 122 121 121 118 119 116 108 85 69 58 47 45 48 45 42 41 39 37
360 339 39 28 356 45 70 101 138 159 175 142 136 152 163 160 156 156 155 151 150 149 147 145 142 138 138 138 121 111 111 106 100 96 76 59 57 54 52 47 48 43 36 37
77 35 53 263 338 91 91 59 80 111 132 144 147 149 150 154 152 153 152 148 147 144 139 136 134 135 134 122 118 116 105 95 97 96 84 62 55 58 52 48 48 44 37 35
96 87 296 323 347 93 102 54 82 120 124 117 114 90 66 120 138 146 146 141 139 138 135 134 135 134 124 122 121 112 104 92 91 97 98 79 64 58 51 57 45 35 35 38
107 117 204 271 301 26 99 95 174 136 142 145 131 136 188 148 127 125 126 127 126 125 123 129 134 126 119 122 118 121 121 107 94 95 100 105 93 64 50 60 51 40 36 30
118 137 257 274 298 46 118 215 183 157 158 160 174 175 148 132 123 125 126 127 126 126 130 139 136 122 121 125 135 147 128 115 108 96 107 113 88 58 58 60 55 40 30 15
119 127 257 301 29 130 197 162 143 145 148 137 125 118 120 124 127 128 126 126 127 128 131 135 132 126 127 141 152 131 114 105 106 104 104 95 86 66 56 66 61 40 30 12
161 197 236 306 121 144 135 125 127 129 130 130 127 130 128 129 132 133 135 134 131 134 135 134 139 138 143 162 145 125 110 104 95 79 65 78 90 82 56 52 65 42 44 21
100 173 140 91 88 100 117 119 125 129 133 133 131 136 132 134 135 135 136 138 137 137 139 146 152 150 158 157 140 128 124 115 99 88 66 52 60 76 88 78 89 91 91 39
103 161 85 47 101 116 110 114 118 120 124 131 131 135 137 140 143 142 141 144 144 147 152 157 155 155 161 153 140 138 142 142 130 125 116 80 59 54 128 203 198 177 183 179
195 202 162 179 164 131 128 132 134 128 120 125 132 136 135 140 143 142 145 146 147 149 152 155 155 161 167 160 150 148 152 166 175 168 154 147 130 10 1 307 310 220 201 192
165 154 138 142 135 128 132 138 138 135 137 136 134 133 134 138 143 144 148 151 157 159 158 159 157 167 179 171 157 160 177 195 198 197 194 190 190 185 269 321 324 307 274 248
129 116 114 134 136 127 125 130 125 124 129 135 137 136 136 137 143 149 156 160 158 156 158 161 164 182 191 174 167 175 186 202 198 203 207 208 210 211 207 219 278 299 292 264
138 135 141 133 123 121 122 122 122 126 129 132 138 142 144 146 155 160 160 154 148 154 165 169 175 196 196 176 175 185 189 205 207 208 210 214 220 218 220 224 236 259 284 288
122 117 123 127 132 133 133 134 138 145 146 146 149 154 154 154 155 156 157 155 155 169 176 176 188 203 193 180 181 190 208 218 211 211 226 233 225 220 225 229 234 241 248 250
127 139 143 145 148 150 152 153 154 156 154 154 160 157 151 147 148 155 163 166 168 175 178 180 192 198 188 181 183 195 211 232 236 238 243 240 232 225 224 223 228 237 245 240
159 162 161 161 162 162 160 156 156 156 159 162 157 152 155 159 166 170 170 164 162 173 188 190 190 192 195 194 192 199 209 225 232 238 246 249 245 233 227 230 235 240 250 256
144 149 154 157 159 159 159 159 161 161 161 160 160 164 169 171 171 168 165 164 171 188 207 201 191 188 197 207 201 206 214 227 239 244 241 247 251 244 236 235 240 241 241 241
138 144 148 151 151 152 156 158 156 161 164 162 162 164 170 174 171 169 171 183 196 197 196 193 190 195 204 214 212 212 220 228 233 241 243 242 246 252 250 243 241 242 241 236
138 141 144 149 152 156 158 158 159 165 168 167 168 175 179 179 176 172 174 198 216 197 188 192 194 203 210 215 215 220 227 234 232 231 236 242 245 248 249 247 243 240 238 238
130 136 142 143 144 156 164 162 163 166 166 171 175 175 174 178 181 184 193 200 202 194 190 195 201 210 214 214 214 221 232 236 236 237 240 241 240 242 246 246 244 243 240 236
126 132 139 148 155 161 162 168 169 169 172 177 179 179 181 185 183 184 206 212 193 195 195 203 210 213 216 217 221 225 235 239 238 236 237 237 237 236 239 243 242 241 240 240
121 133 144 145 135 140 159 180 177 176 177 179 183 182 180 182 196 203 198 193 195 198 204 211 212 214 216 220 225 230 236 241 242 240 240 240 240 240 240 241 242 242 241 242
127 129 130 132 142 167 181 177 167 173 174 181 187 189 188 186 191 200 194 195 199 200 211 216 216 216 216 222 227 232 236 237 238 239 241 244 244 243 241 239 239 240 241 242
145 160 166 171 175 177 169 161 171 183 181 189 199 197 195 193 193 192 192 199 202 203 209 215 215 216 218 223 230 235 236 237 240 240 239 240 241 238 238 240 241 237 236 236
144 146 146 154 180 173 166 167 180 192 192 193 204 206 199 196 197 200 200 202 203 206 211 214 214 214 219 225 231 236 236 235 236 237 237 236 237 239 239 239 238 236 233 234